www.pogodaiklimat.ru
Время
(UTC), дата
19 14.11
20 14.11
21 14.11
22 14.11
23 14.11
00 15.11
01 15.11
02 15.11
03 15.11
04 15.11
05 15.11
06 15.11
07 15.11
08 15.11
09 15.11
10 15.11
11 15.11
12 15.11
13 15.11
14 15.11
15 15.11
16 15.11
17 15.11
18 15.11
19 15.11
20 15.11
21 15.11
22 15.11
23 15.11
00 16.11
01 16.11
02 16.11
03 16.11
04 16.11
05 16.11
06 16.11
07 16.11
08 16.11
09 16.11
10 16.11
11 16.11
12 16.11
13 16.11
14 16.11
15 16.11
16 16.11
17 16.11
18 16.11
19 16.11
20 16.11
21 16.11
22 16.11
23 16.11
00 17.11
01 17.11
02 17.11
03 17.11
04 17.11
05 17.11
06 17.11
07 17.11
08 17.11
09 17.11
10 17.11
11 17.11
12 17.11
13 17.11
14 17.11
15 17.11
16 17.11
17 17.11
18 17.11
19 17.11
20 17.11
21 17.11
22 17.11
23 17.11
00 18.11
01 18.11
02 18.11
03 18.11
04 18.11
05 18.11
06 18.11
07 18.11
08 18.11
09 18.11
10 18.11
11 18.11
12 18.11
13 18.11
14 18.11
15 18.11
16 18.11
17 18.11
19 18.11
20 18.11
21 18.11
22 18.11
23 18.11
00 19.11
01 19.11
02 19.11
03 19.11
04 19.11
05 19.11
06 19.11
07 19.11
08 19.11
09 19.11
10 19.11
11 19.11
12 19.11
13 19.11
14 19.11
15 19.11
16 19.11
17 19.11
18 19.11
19 19.11
20 19.11
21 19.11
22 19.11
23 19.11
00 20.11
01 20.11
02 20.11
03 20.11
04 20.11
05 20.11
06 20.11
07 20.11
08 20.11
09 20.11
10 20.11
11 20.11
12 20.11
13 20.11
14 20.11
15 20.11
16 20.11
17 20.11
18 20.11
19 20.11
20 20.11
21 20.11
22 20.11
23 20.11
00 21.11
01 21.11
02 21.11
03 21.11
04 21.11
05 21.11
06 21.11
07 21.11
08 21.11
09 21.11
10 21.11
11 21.11
12 21.11
13 21.11
14 21.11
15 21.11
16 21.11
17 21.11
18 21.11
19 21.11
Ветер
(напр.,м/с)
Видим. Явления Облачность Т
(С)
Тd
(С)
f
(%)
Тe
(С)
Тes
(С)
Комфортность P
(гПа)
Po
(гПа)
Тmin
(С)
Tmax
(С)
R
(мм)
R24
(мм)
S
(см)
СЗ 2-3
{4}
4900 м дымка 10/0 50 м
[]
-3.2 -3.2 100 -8 -8 очень
холодно
1007.8 985.2
СЗ 2-3
{3}
40 км 9/6 300 м
[]
-3.4 -3.5 99 -8 -8 очень
холодно
1007.5 984.9
СЗ 2-4
{4}
50 км 9/9 300 м
[]
-4.4 -4.7 98 -9 -9 очень
холодно
1008.0 985.3
СЗ 2-3
{3}
40 км 10/0 300 м
[]
-4.0 -4.0 100 -8 -8 очень
холодно
1007.9 985.2
СЗ 2-2
{2}
22 км 10/0 300 м
[]
-3.7 -3.8 99 -8 -8 очень
холодно
1008.4 985.7
З 2-3
{3}
45 км 10/0 300 м
[]
-3.2 -3.2 100 -8 -8 очень
холодно
1008.9 986.3
СЗ 3-5
{5}
40 км 10/10 300 м
[]
-2.8 -2.8 100 -8 -8 очень
холодно
1009.6 986.9
СЗ 2-3
{4}
50 км 10/0 300 м
[]
-2.5 -2.5 100 -7 -7 холодно 1010.3 987.7
СЗ 3-5
{6}
11 км туман на расстоянии {ливн. осадки} 10/10 200 м
[]
-2.5 -2.5 100 -8 -8 очень
холодно
1011.3 988.6
З 2-5
{6}
14 км слаб. ливневой снег 10/10 300 м
[]
-2.9 -3.1 99 -7 -7 холодно 1012.1 989.4
З 3-6
{6}
50 км в посл. час снег 10/0 600 м
[]
-3.4 -3.6 99 -9 -9 очень
холодно
1013.3 990.5
З 2-4
{5}
50 км {ливн. осадки, снег} 9/0 600 м
[]
-3.7 -4.1 97 -8 -8 очень
холодно
1014.4 991.5 -4.4 -2.4 42
З 3-5
{6}
50 км 10/0 600 м
[]
-3.6 -3.9 98 -9 -9 очень
холодно
1015.1 992.3
З 3-5
{6}
50 км 10/0 1000 м
[]
-3.3 -3.6 98 -9 -9 очень
холодно
1016.1 993.2
З 4-6
{6}
50 км 10/0 1000 м
[]
-3.0 -3.3 98 -9 -9 очень
холодно
1017.2 994.4
З 3-6
{6}
45 км 10/0 1000 м
[]
-2.8 -3.2 97 -8 -8 очень
холодно
1018.2 995.4
З 3-5
{6}
50 км 10/0 1000 м
[]
-2.8 -3.2 97 -8 -8 очень
холодно
1019.2 996.3
ЮЗ 4-7
{8}
40 км слаб. ливневой дождь {туман} 4/0 1000 м
[]
-3.0 -3.6 96 -9 -9 очень
холодно
1019.6 996.7
ЮЗ 3-5
{7}
50 км ясно -4.3 -4.9 96 -10 -10 очень
холодно
1020.4 997.3
ЮЗ 2-4
{5}
50 км ясно -5.3 -5.9 96 -10 -10 очень
холодно
1021.1 998.0
Ю 1-2
{4}
50 км {ливн. осадки} ясно -7.0 -8.0 93 -9 -9 очень
холодно
1021.5 998.2
ЮВ 1-2
{4}
50 км ясно -8.3 -9.2 93 -11 -11 очень
холодно
1022.1 998.7
ЮВ 2-3
{3}
50 км ясно -8.5 -8.9 97 -13 -13 очень
холодно
1022.3 998.8
Ю 2-4
{5}
40 км {ливн. осадки} 9/0 50 м
[]
-8.4 -8.8 97 -13 -13 очень
холодно
1022.6 999.2 -8.7 -2.7
ЮЗ 3-5
{5}
40 км 10/0 100 м
[]
-7.7 -7.9 98 -14 -14 очень
холодно
1022.9 999.6
ЮЗ 2-4
{5}
17 км 10/0 50 м
[]
-7.1 -7.3 98 -12 -12 очень
холодно
1023.2 999.8
Ю 1-2
{5}
29 км 10/0 50 м
[]
-6.6 -6.7 99 -9 -9 очень
холодно
1023.3 1000.0
ЮЗ 2-4
{4}
45 км 10/0 100 м
[]
-5.9 -6.1 98 -10 -10 очень
холодно
1023.5 1000.3
Ю 2-4
{5}
35 км 9/0 50 м
[]
-5.8 -6.0 98 -10 -10 очень
холодно
1023.6 1000.3
ЮЗ 1-2
{3}
45 км 9/0 50 м
[]
-5.7 -5.9 98 -8 -8 очень
холодно
1023.8 1000.5
ЮЗ 2-4
{5}
50 км 9/0 100 м
[]
-5.5 -5.7 98 -10 -10 очень
холодно
1023.8 1000.5
ЮЗ 2-5
{5}
50 км 9/0 100 м
[]
-5.3 -5.5 98 -10 -10 очень
холодно
1023.8 1000.6
ЮЗ 2-4
{5}
45 км 9/0 100 м
[]
-5.2 -5.4 98 -10 -10 очень
холодно
1024.1 1000.9
ЮЗ 2-5
{5}
26 км 9/0 100 м
[]
-5.0 -5.1 99 -9 -9 очень
холодно
1024.1 1001.0
ЮЗ 2-3
{4}
14 км слаб. снег 9/9 50 м
[]
-4.9 -5.0 99 -9 -9 очень
холодно
1024.0 1000.8
ЮЗ 1-2
{3}
16 км слаб. снег {туман} 9/0 100 м
[]
-4.7 -4.9 98 -7 -7 холодно 1024.4 1001.2 -8.4 -4.7 41
ЮЗ 1-3
{4}
13 км слаб. снег 9/0 100 м
[]
-4.6 -4.8 99 -7 -7 холодно 1024.7 1001.5
штиль 0-1
{2}
4300 м снежные зёрна 9/9 200 м
[]
-4.5 -4.7 99 -6 -6 холодно 1024.9 1001.7
В 1-1
{1}
15 км слаб. снег 9/0 200 м
[]
-4.3 -4.5 99 -7 -7 холодно 1025.2 1002.0
ЮЗ 1-2
{3}
17 км слаб. ливневой снег 9/0 200 м
[]
-4.0 -4.1 99 -7 -7 холодно 1025.2 1002.1
ЮЗ 1-3
{3}
9000 м слаб. ливневой снег 9/0 200 м
[]
-3.7 -3.9 99 -6 -6 холодно 1025.4 1002.3
Ю 1-2
{3}
13 км слаб. снег 9/0 200 м
[]
-3.5 -3.6 99 -6 -6 холодно 1025.2 1002.2
штиль 0-1
{3}
40 км в посл. час зёрна 9/0 200 м
[]
-3.5 -3.7 99 -5 -5 холодно 1025.2 1002.1
ЮЗ 1-1
{2}
40 км 9/0 300 м
[]
-3.6 -3.7 99 -6 -6 холодно 1025.2 1002.1
ЮВ 1-2
{2}
7000 м слаб. ливневой снег 9/0 300 м
[]
-3.6 -3.7 99 -6 -6 холодно 1025.6 1002.5
ЮВ 1-2
{3}
18 км слаб. ливневой снег 9/0 300 м
[]
-3.6 -3.7 99 -6 -6 холодно 1025.7 1002.6
ЮВ 1-1
{1}
8000 м слаб. снег 9/0 300 м
[]
-3.6 -3.7 99 -6 -6 холодно 1025.9 1002.8
В 1-1
{3}
9000 м слаб. ливневой снег 9/9 300 м
[]
-3.5 -3.6 99 -6 -6 холодно 1025.9 1002.8 -4.8 -3.4
Ю 1-2
{2}
12 км слаб. ливневой снег 9/0 300 м
[]
-3.5 -3.7 99 -6 -6 холодно 1025.9 1002.8
ЮВ 1-2
{2}
13 км слаб. ливневой снег 9/0 300 м
[]
-3.5 -3.6 99 -6 -6 холодно 1025.9 1002.9
В 1-3
{3}
26 км слаб. ливневой снег 9/0 300 м
[]
-3.3 -3.5 99 -6 -6 холодно 1025.6 1002.5
ЮВ 1-2
{3}
35 км в посл. час снег 9/0 300 м
[]
-3.2 -3.3 99 -6 -6 холодно 1025.7 1002.6
В 2-3
{4}
50 км в посл. час осадки 9/0 300 м
[]
-3.1 -3.4 98 -7 -7 холодно 1025.6 1002.6
В 2-4
{4}
50 км {ливн. осадки, снег} 9/0 300 м
[]
-3.2 -3.4 99 -8 -8 очень
холодно
1025.6 1002.5
ЮВ 2-3
{4}
18 км 9/0 300 м
[]
-3.2 -3.5 98 -8 -8 очень
холодно
1025.5 1002.4
В 2-4
{4}
35 км в посл. час снег 9/0 300 м
[]
-3.4 -3.7 98 -8 -8 очень
холодно
1025.1 1002.0
ЮВ 3-5
{5}
50 км в посл. час снег {ливн. осадки} 9/0 300 м
[]
-3.6 -4.0 97 -9 -9 очень
холодно
1025.0 1001.9
В 3-5
{6}
50 км 10/0 200 м
[]
-3.9 -4.2 98 -9 -9 очень
холодно
1024.8 1001.7
В 3-4
{5}
50 км 10/0 200 м
[]
-4.0 -4.3 98 -10 -10 очень
холодно
1024.1 1001.0
В 3-5
{5}
40 км {ливн. осадки, снег} 10/0 100 м
[]
-4.4 -4.6 99 -10 -10 очень
холодно
1023.8 1000.7 -4.4 -3.1 40
В 2-3
{5}
15 км 10/10 100 м
[]
-4.5 -4.6 99 -9 -9 очень
холодно
1023.7 1000.6
В 3-5
{6}
14 км в посл. час снег 10/10 100 м
[]
-4.4 -4.7 98 -10 -10 очень
холодно
1023.5 1000.4
В 3-4
{5}
7000 м дымка {ливн. осадки, снег} 10/10 100 м
[]
-4.6 -4.8 99 -10 -10 очень
холодно
1023.6 1000.5
В 3-4
{5}
6000 м дымка 10/0 100 м
[]
-4.7 -4.8 99 -10 -10 очень
холодно
1023.5 1000.3
В 2-4
{4}
4700 м дымка 10/0 100 м
[]
-4.7 -4.8 99 -9 -9 очень
холодно
1023.2 1000.1
В 3-4
{5}
6000 м дымка {ливн. осадки, снег} 10/0 100 м
[]
-4.8 -5.0 98 -10 -10 очень
холодно
1022.6 999.4
В 3-6
{6}
4600 м дымка 10/0 50 м
[]
-5.0 -5.1 99 -11 -11 очень
холодно
1022.1 998.9
В 3-5
{6}
3400 м слаб. снег 10/0 50 м
[]
-5.2 -5.3 99 -11 -11 очень
холодно
1022.0 998.9
В 3-5
{5}
3100 м слаб. снег {туман} 10/0 50 м
[]
-5.4 -5.6 98 -11 -11 очень
холодно
1022.1 998.9
В 3-6
{6}
5000 м слаб. снег 10/0 50 м
[]
-5.7 -5.9 98 -11 -11 очень
холодно
1022.0 998.8
В 3-4
{6}
3500 м дымка 10/10 50 м
[]
-6.0 -6.3 98 -12 -12 очень
холодно
1022.0 998.8
В 2-3
{4}
4200 м дымка {снег, туман} 10/0 50 м
[]
-5.9 -6.1 98 -10 -10 очень
холодно
1022.0 998.8 -6.0 -4.4
СВ 2-2
{3}
20 км 10/10 50 м
[]
-5.8 -6.0 98 -10 -10 очень
холодно
1022.1 998.9
СВ 1-2
{3}
9000 м 10/0 50 м
[]
-5.6 -5.7 99 -8 -8 очень
холодно
1022.0 998.8
СВ 1-2
{3}
30 км 10/10 50 м
[]
-5.3 -5.5 98 -8 -8 очень
холодно
1022.5 999.3
СВ 1-2
{3}
24 км 10/0 100 м
[]
-5.3 -5.5 98 -8 -8 очень
холодно
1022.7 999.6
СВ 1-2
{2}
27 км 9/9 100 м
[]
-5.3 -5.5 98 -8 -8 очень
холодно
1022.9 999.7
СВ 1-2
{2}
28 км слаб. ливневой дождь {туман} 10/10 200 м
[]
-5.4 -5.7 98 -8 -8 очень
холодно
1023.2 1000.0
В 1-2
{3}
40 км в посл. час осадки 10/0 300 м
[]
-5.8 -6.3 96 -8 -8 очень
холодно
1023.5 1000.2
С 2-3
{3}
35 км 10/0 100 м
[]
-6.1 -6.4 98 -11 -11 очень
холодно
1024.0 1000.7
С 1-1
{2}
28 км {ливн. осадки} 10/10 100 м
[]
-6.2 -6.6 97 -9 -9 очень
холодно
1024.4 1001.2
штиль 0-1
{3}
25 км 10/10 100 м
[]
-6.0 -6.3 98 -7 -7 холодно 1025.1 1001.8
В 1-2
{2}
30 км 10/10 200 м
[]
-5.9 -6.1 98 -8 -8 очень
холодно
1025.2 1001.9
СВ 1-2
{2}
35 км {ливн. осадки} 10/0 200 м
[]
-5.7 -5.9 98 -8 -8 очень
холодно
1025.7 1002.5 -6.2 -5.3 39
В 1-2
{2}
35 км 10/10 200 м
[]
-5.3 -5.5 98 -8 -8 очень
холодно
1026.4 1003.1
В 2-3
{3}
35 км 10/10 200 м
[]
-4.9 -5.1 98 -9 -9 очень
холодно
1026.8 1003.5
В 1-3
{3}
21 км слаб. ливневой дождь {туман} 10/0 200 м
[]
-4.3 -4.4 99 -7 -7 холодно 1027.2 1004.0
В 2-2
{2}
7000 м слаб. снег 10/10 200 м
[]
-3.9 -4.0 99 -8 -8 очень
холодно
1027.4 1004.2
В 1-2
{3}
1400 м слаб. снег ?/? -3.7 -3.8 99 -6 -6 холодно 1027.3 1004.2
В 1-1
{2}
1000 м снежные зёрна {ливн. осадки} 10/10 200 м
[]
-3.6 -3.8 99 -6 -6 холодно 1027.7 1004.6 0.1
Ю 1-3
{3}
2600 м слаб. снег 10/10 300 м
[]
-3.6 -3.8 99 -6 -6 холодно 1028.3 1005.2 0.1
ЮВ 2-2
{2}
2300 м слаб. снег 9/9 300 м
[]
-3.4 -3.5 99 -8 -8 очень
холодно
1028.3 1005.1 0.2
ЮВ 2-3
{3}
8000 м снежные зёрна 10/10 600 м
[]
-3.1 -3.2 99 -7 -7 холодно 1028.4 1005.3
ЮВ 2-4
{4}
13 км слаб. снег 9/9 300 м
[]
-2.7 -2.7 100 -7 -7 холодно 1028.6 1005.5
ЮВ 2-3
{4}
3400 м слаб. снег 10/10 100 м
[]
-2.4 -2.4 100 -7 -7 холодно 1028.5 1005.5 0.3
ЮВ 2-2
{4}
2900 м снежные зёрна 10/10 200 м
[]
-2.4 -2.4 100 -7 -7 холодно 1029.1 1006.0
ЮВ 2-3
{5}
3000 м слаб. снег 10/0 50 м
[]
-2.0 -2.0 100 -6 -6 холодно 1029.6 1006.5 0.2
ЮВ 2-3
{3}
2100 м в посл. час переохл. осадки (гололёд) 10/0 50 м
[]
-1.7 -1.7 100 -6 -6 холодно 1029.7 1006.7
ЮВ 2-4
{4}
2100 м слаб. снег 10/0 50 м
[]
-1.3 -1.3 100 -5 -5 холодно 1030.0 1007.0
ЮВ 2-3
{4}
6000 м в посл. час снег 10/10 50 м
[]
-1.0 -1.0 100 -5 -5 холодно 1030.0 1007.0 0.1
ЮВ 2-5
{5}
15 км {ливн. осадки, снег} 10/10 100 м
[]
-0.7 -0.7 100 -5 -5 холодно 1029.8 1006.9
ЮВ 3-5
{6}
6000 м слаб. снег 10/10 50 м
[]
-0.4 -0.4 100 -5 -5 холодно 1029.6 1006.7 0.2
ЮВ 3-6
{6}
11 км дымка 10/0 50 м
[]
-0.2 -0.2 100 -5 -5 холодно 1029.3 1006.5
ЮВ 2-4
{7}
7000 м осадки 10/10 50 м
[]
0.0 0.0 100 -4 -4 прохладно 1029.4 1006.5 0.1
ЮВ 3-6
{6}
3400 м слаб. ливневой снег 10/10 50 м
[]
+0.1 +0.1 100 -5 -5 холодно 1029.2 1006.4 0.2
ЮВ 4-6
{7}
8000 м в посл. час снег 10/10 50 м
[]
+0.1 +0.1 100 -6 -6 холодно 1029.1 1006.3 0.2
ЮВ 3-6
{8}
6000 м дымка 10/0 50 м
[]
0.0 0.0 100 -5 -5 холодно 1029.1 1006.2 -2.6 +0.1 39
ЮВ 4-7
{8}
24 км 10/10 50 м
[]
-0.1 -0.1 100 -6 -6 холодно 1029.0 1006.2
ЮВ 3-7
{7}
45 км 10/10 100 м
[]
-0.3 -0.3 100 -5 -5 холодно 1029.4 1006.5
ЮВ 3-6
{7}
50 км 10/10 100 м
[]
-0.5 -0.6 99 -6 -6 холодно 1029.5 1006.5
ЮВ 4-7
{9}
30 км 10/10 100 м
[]
-0.7 -0.8 99 -7 -7 холодно 1029.3 1006.4
ЮВ 4-8
{10}
35 км 10/10 100 м
[]
-0.9 -1.0 99 -7 -7 холодно 1029.0 1006.0
ЮВ 4-9
{10}
40 км 10/10 100 м
[]
-1.3 -1.4 99 -7 -7 холодно 1028.8 1005.8
ЮВ 4-7
{9}
40 км 10/0 100 м
[]
-1.7 -1.8 99 -8 -8 очень
холодно
1028.8 1005.8
ЮВ 4-8
{8}
40 км 10/0 100 м
[]
-1.8 -1.9 99 -8 -8 очень
холодно
1028.5 1005.5
ЮВ 4-7
{7}
7000 м слаб. снег {туман} 10/10 100 м
[]
-1.7 -1.7 100 -8 -8 очень
холодно
1028.4 1005.4
ЮВ 3-8
{8}
20 км в посл. час снег 10/10 100 м
[]
-1.6 -1.6 100 -7 -7 холодно 1027.9 1004.9
ЮВ 3-6
{8}
9000 м дымка 10/10 100 м
[]
-1.4 -1.5 99 -7 -7 холодно 1027.9 1005.0
ЮВ 4 25 км {ливн. осадки, снег} 10/10 100 м
[]
-1.3 -1.4 99 -7 -7 холодно 1027.5 1004.6 -1.8 0.0
ЮВ 4-6
{7}
3000 м морось 10/10 100 м
[]
-1.1 -1.1 100 -7 -7 холодно 1027.3 1004.3
ЮВ 3-6
{7}
13 км слаб. снег 10/10 100 м
[]
-1.0 -1.1 99 -6 -6 холодно 1027.1 1004.2 0.2
ЮВ 3-6
{6}
8000 м слаб. снег {дождь} 10/10 100 м
[]
-1.0 -1.0 100 -6 -6 холодно 1027.2 1004.3 0.2
ЮВ 3-5
{6}
30 км в посл. час снег 10/0 100 м
[]
-0.8 -0.8 100 -6 -6 холодно 1027.1 1004.2
ЮВ 3-6
{6}
7000 м слаб. ливневой снег 10/10 100 м
[]
-0.6 -0.6 100 -6 -6 холодно 1026.8 1004.0 0.1
ЮВ 3-6
{6}
3900 м слаб. снег 10/10 100 м
[]
-0.5 -0.5 100 -6 -6 холодно 1026.6 1003.8
ЮВ 3-5
{5}
6000 м слаб. снег 10/10 100 м
[]
-0.4 -0.4 100 -5 -5 холодно 1026.5 1003.7 0.3
ЮВ 3-5
{5}
30 км снежные зёрна 10/10 100 м
[]
-0.2 -0.2 100 -5 -5 холодно 1026.4 1003.6 0.1
ЮВ 3-6
{6}
4000 м в посл. час снег {ливн. осадки} 10/0 50 м
[]
0.0 0.0 100 -5 -5 холодно 1025.9 1003.1
ЮВ 2-5
{6}
4800 м дымка 10/0 50 м
[]
+0.1 +0.1 100 -4 -4 прохладно 1025.6 1002.8
ЮВ 2-5
{5}
2600 м дымка 10/0 50 м
[]
+0.1 +0.1 100 -4 -4 прохладно 1025.2 1002.5
ЮВ 3-5
{6}
2900 м туман местами {ливн. осадки, снег} 10/10 50 м
[]
+0.2 +0.2 100 -5 -5 холодно 1024.9 1002.1 -1.3 +0.2 0.1 <0.5
ЮВ 3-6
{6}
5000 м слаб. снег 10/0 50 м
[]
+0.3 +0.3 100 -5 -5 холодно 1024.8 1002.0 0.5
ЮВ 3-6
{7}
2500 м в посл. час снег 10/0 50 м
[]
+0.3 +0.3 100 -5 -5 холодно 1024.7 1001.9 0.3
ЮВ 3-6
{6}
2600 м слаб. снег 10/0 50 м
[]
+0.3 +0.3 100 -5 -5 холодно 1024.5 1001.7
ЮВ 2-5
{6}
4400 м в посл. час снег 10/0 50 м
[]
+0.4 +0.4 100 -3 -3 прохладно 1024.1 1001.4 0.2
ЮВ 2-3
{5}
2100 м дымка 10/10 <50 м
[]
+0.4 +0.4 100 -3 -3 прохладно 1023.8 1001.1
ЮВ 2-4
{4}
3500 м ливневой дождь {снег} 10/10 50 м
[]
+0.5 +0.5 100 -3 -3 прохладно 1023.8 1001.0 0.1
ЮВ 3-4
{5}
12 км слаб. дождь 10/10 50 м
[]
+0.5 +0.5 100 -4 -4 прохладно 1023.6 1000.9 0.4
Ю 3-5
{6}
11 км слаб. дождь 10/10 100 м
[]
+0.7 +0.7 100 -4 -4 прохладно 1023.4 1000.8 0.1
Ю 2-4
{5}
4600 м дымка {ливн. осадки, дождь} 10/0 100 м
[]
+0.7 +0.7 100 -3 -3 прохладно 1023.5 1000.8
Ю 3-5
{5}
3500 м дымка 10/10 50 м
[]
+0.8 +0.8 100 -4 -4 прохладно 1023.6 1001.0
ЮЗ 5-7
{7}
12 км 10/10 50 м
[]
+1.0 +1.0 100 -5 -5 холодно 1024.2 1001.6
ЮЗ 4-7
{7}
5000 м дымка {ливн. осадки, дождь} 10/10 50 м
[]
+1.2 +1.2 100 -4 -4 прохладно 1024.8 1002.1 +0.2 +1.2
ЮЗ 3-5
{6}
7000 м дымка 10/10 200 м
[]
+1.1 +1.1 100 -4 -4 прохладно 1025.4 1002.7
ЮЗ 4-7
{7}
4500 м слаб. ливневой дождь 10/10 100 м
[]
+1.1 +1.1 100 -4 -4 прохладно 1025.9 1003.2 0.1
ЮЗ 4-9
{9}
25 км {ливн. осадки, морось} 10/10 300 м
[]
+1.2 +1.2 100 -4 -4 прохладно 1026.3 1003.6
ЮЗ 3-7
{11}
18 км 10/10 200 м
[]
+1.0 +0.9 99 -4 -4 прохладно 1027.1 1004.4
ЮЗ 4-8
{10}
50 км 10/10 200 м
[]
+0.9 +0.8 99 -5 -5 холодно 1027.4 1004.6
ЮЗ 3-6
{9}
45 км {ливн. осадки, морось} 10/10 100 м
[]
+0.8 +0.7 99 -4 -4 прохладно 1027.8 1005.0
ЮЗ 3-5
{9}
50 км 10/10 200 м
[]
+0.7 +0.5 99 -4 -4 прохладно 1028.2 1005.5
ЮЗ 4-6
{8}
50 км 10/10 200 м
[]
+0.6 +0.5 99 -5 -5 холодно 1028.4 1005.6
ЮЗ 3-6
{7}
50 км 10/10 200 м
[]
+0.6 +0.4 99 -4 -4 прохладно 1028.5 1005.7
ЮЗ 3-7
{8}
50 км 10/10 100 м
[]
+0.5 +0.3 99 -4 -4 прохладно 1028.8 1006.0
ЮЗ 4-7
{7}
50 км 10/10 100 м
[]
+0.4 +0.2 99 -5 -5 холодно 1029.3 1006.5
Ю 3-5
{7}
50 км 10/10 100 м
[]
+0.3 +0.1 99 -5 -5 холодно 1029.5 1006.7 +0.3 +1.2 <0.5
Ю 3-5
{7}
50 км 9/9 200 м
[]
+0.5 +0.2 98 -4 -4 прохладно 1029.6 1006.7
Ю 4-6
{7}
50 км 9/0 200 м
[]
+0.4 0.0 97 -5 -5 холодно 1029.5 1006.6
Ю 4-7
{9}
50 км 10/10 100 м
[]
+0.2 -0.1 98 -5 -5 холодно 1029.7 1006.9
Ю 3-6
{9}
50 км 9/0 200 м
[]
+0.4 0.0 97 -4 -4 прохладно 1030.0 1007.1
ЮЗ 4-7
{7}
50 км 9/9 200 м
[]
+0.7 +0.2 96 -5 -5 холодно 1029.7 1006.9
Ю 4-9
{9}
50 км 9/9 200 м
[]
+0.7 +0.1 96 -5 -5 холодно 1029.4 1006.6
ЮЗ 4-7
{9}
50 км 9/9 200 м
[]
+0.6 +0.1 96 -5 -5 холодно 1029.2 1006.3
ЮЗ 5-11
{11}
50 км 9/9 200 м
[]
+0.6 -0.1 95 -6 -6 холодно 1029.0 1006.1
Ю 4-8
{9}
50 км 9/9 200 м
[]
+0.5 -0.2 95 -5 -5 холодно 1028.9 1006.1
Ю 4-8
{9}
45 км 9/9 200 м
[]
+0.3 -0.2 96 -5 -5 холодно 1028.8 1006.0
Ю 3-6
{10}
40 км 9/9 100 м
[]
+0.1 -0.2 98 -5 -5 холодно 1028.5 1005.7
Ю 3 11 км 9/9 100 м
[]
+0.3 0.0 98 -5 -5 холодно 1028.2 1005.3 +0.1 +0.7
ЮЗ 3-5
{6}
5000 м дымка 9/9 100 м
[]
+0.4 +0.4 100 -4 -4 прохладно 1027.9 1005.1
Местоположение метеостанции Соданкюля (Финляндия): широта 67.37 долгота 26.63 высота над уровнем моря 179 м.
В архиве по умолчанию представлена погода в Соданкюля за последнюю неделю. Архивные данные за месяц целиком и за предыдущие месяцы, начиная с января 2011 года, Вы можете получить, выбрав интересующий диапазон дат из раскрывающегося списка и нажав кнопку "Найти!".
*Определитесь, кто Вы:
Внимание! Время в таблицах - всемирное. Для получения местного времени необходимо прибавить поправку, которая равна 1 ч.
Смотрите также архив погоды в соседних городах и на ближайших метеорологических станциях:
Партнеры нашего сайта:      
Пояснения к столбцам:
  • Ветер - указаны скорость ветра в м/с - средняя за 10 мин, порывы в срок и между сроками (в фигурных скобках) и направление, откуда дует ветер: С - северный,
  • СВ - северо-восточный, В - восточный, ЮВ - юго-восточный, Ю - южный, ЮЗ - юго-западный, З - западный, СЗ - северо-западный.
  • Видимость - горизонтальная дальность видимости в метрах или километрах. При видимости от 1 до 10 км при отсутствии осадков обычно наблюдается дымка, при ухудшении видимости до 1 км и менее - туман. В сухую погоду видимость может ухудшаться дымом, пылью или мглою.
  • Явления - указаны атмосферные явления, наблюдавшиеся в срок или в последний час перед сроком; фигурными скобками обозначены явления, наблюдавшиеся между сроками (за 1-3 часа до срока); квадратными скобками обозначены град или гололедные отложения с указанием их диаметра в мм.
  • Облачность - указаны через наклонную черту общая и нижняя облачность в баллах и высота нижней границы облаков в метрах; квадратными скобками обозначены формы облаков: Ci - перистые, Cs - перисто-слоистые, Cc - перисто-кучевые, Ac - высококучевые, As - высокослоистые, Sc - слоисто-кучевые, Ns - слоисто-дождевые, Cu - кучевые, Cb - кучево-дождевые. Подробнее классификацию облаков см. в Атласе облаков (PDF).
  • T - Температура воздуха - температура, измеренная на высоте 2 м над землей.
  • Td - Температура точки росы - температура, при понижении до которой содержащийся в воздухе водяной пар достигнет насыщения.
  • f - Относительная влажность воздуха - влажноcть воздуха, измеренная на высоте 2 м над землей.
  • Te - Эффективная температура - температура, которую ощущает одетый по сезону человек в тени. Характеристика душности погоды. При расчете учитывается влияние влажности воздуха и скорости ветра на теплоощущения человека.
  • Tes - Эффективная температура на солнце - температура, которую ощущает человек, с поправкой на солнечный нагрев. Характеристика знойности погоды. Зависит от высоты солнца над горизонтом, облачности и скорости ветра. Ночью, в пасмурную погоду, а также при ветре 12 м/с и более поправка равна нулю.
  • P - Атмосферное давление - приведенное к уровню моря атмосферное давление.
  • Po - Атмосферное давление - измеренное на уровне метеостанции атмосферное давление.
  • Tmin - Минимальная температура - минимум температуры воздуха на высоте 2 м над землей.
  • Tmax - Максимальная температура - максимум температуры воздуха на высоте 2 м над землей.
  • R - Количество осадков - Количество выпавших осадков за период времени, мм. При наведении курсора мыши на число - период времени, за который выпало указанное количество осадков.
  • R24 - Количество осадков - Количество выпавших осадков за 24 часа, мм.
  • S - Снежный покров - Высота снежного покрова, см. При наведении курсора мыши на число - состояние снежного покрова и степень покрытия местности в баллах.